Date String (YYYY-MM-DD hh:mm:ss) UTC,Instrument flags,absolute air pressure of the measurement (hPa),sample flow rate (lpm),inlet stack bypass flow (lpm),air temperature of the measurement (°C),ambient temperature measured by the external sensor (°C),aerosol sample conditioner tube jacket temperature (°C),OPC LED temperature (°C),internal box temperature (°C),relative humidity of the measurement (%),span deviation,mass concentration of particles derived from Lorenz-Mie calculation of OPC scattering (μg/m³),mass concentration of particles derived from Lorenz-Mie calculation of OPC scattering (μg/m³),mass concentration of particles derived from Lorenz-Mie calculation of OPC scattering (μg/m³)
DateTimeUTC,F1_M11,P_M11,Q1_M11,Q2_M11,T1_M11,T2_M11,T3_M11,T4_M11,T5_M11,U1_M11,ZSPAN_M11,X0_M11,X2_M11,X1_M11
2024-03-18 21:00:00,SystemResetWarning,0832.6,5.01,000.00,021.5,020.9,000.0,029.8,023.3,12.6,0000.0,0006.98,0002.04,0001.31
2024-03-18 21:01:00,SystemResetWarning,0832.6,5.01,000.00,021.5,021.0,000.0,029.9,023.3,12.5,0000.0,0006.85,0001.99,0001.30
2024-03-18 21:02:00,SystemResetWarning,0832.6,5.00,000.00,021.6,021.0,000.0,029.9,023.3,13.3,0000.0,0006.83,0001.98,0001.30
2024-03-18 21:03:00,SystemResetWarning,0832.6,5.00,000.00,021.6,021.0,000.0,029.9,023.3,12.5,0000.0,0007.15,0002.04,0001.31
2024-03-18 21:04:00,SystemResetWarning,0832.5,5.00,000.00,021.6,021.0,000.0,029.9,023.3,12.9,0000.0,0007.67,0002.05,0001.33
2024-03-18 21:05:00,SystemResetWarning,0832.6,5.00,000.00,021.6,021.0,000.0,029.9,023.3,13.3,0000.0,0007.75,0002.05,0001.33
2024-03-18 21:06:00,SystemResetWarning,0832.5,4.99,000.00,021.6,021.0,000.0,029.9,023.3,13.3,0000.0,0007.99,0002.06,0001.34
2024-03-18 21:07:00,SystemResetWarning,0832.5,5.00,000.00,021.6,021.0,000.0,029.9,023.4,12.2,0000.0,0008.56,0002.11,0001.34
2024-03-18 21:08:00,SystemResetWarning,0832.5,5.00,000.00,021.6,021.0,000.0,029.9,023.4,12.1,0000.0,0008.31,0002.15,0001.36
2024-03-18 21:09:00,SystemResetWarning,0832.5,5.00,000.00,021.6,021.0,000.0,029.9,023.4,12.2,0000.0,0008.35,0002.21,0001.39
2024-03-18 21:10:00,SystemResetWarning,0832.5,5.00,000.00,021.6,021.1,000.0,029.9,023.4,13.4,0000.0,0008.40,0002.23,0001.41
2024-03-18 21:11:00,SystemResetWarning,0832.5,5.01,000.00,021.6,021.1,000.0,029.9,023.4,13.5,0000.0,0007.61,0002.25,0001.41
2024-03-18 21:12:00,SystemResetWarning,0832.5,5.00,000.00,021.7,021.1,000.0,030.0,023.4,12.9,0000.0,0007.35,0002.31,0001.42
2024-03-18 21:13:00,SystemResetWarning,0832.6,5.00,000.00,021.7,021.1,000.0,030.0,023.4,13.0,0000.0,0007.50,0002.39,0001.43
2024-03-18 21:14:00,SystemResetWarning,0832.5,5.00,000.00,021.7,021.1,000.0,030.0,023.4,12.9,0000.0,0007.14,0002.31,0001.43
2024-03-18 21:15:00,SystemResetWarning,0832.5,5.00,000.00,021.7,021.1,000.0,030.0,023.5,12.4,0000.0,0006.25,0002.28,0001.44
2024-03-18 21:16:00,SystemResetWarning,0832.6,5.00,000.00,021.7,021.1,000.0,030.0,023.5,12.6,0000.0,0006.20,0002.33,0001.46
2024-03-18 21:17:00,SystemResetWarning,0832.5,5.00,000.00,021.7,021.1,000.0,030.0,023.5,13.2,0000.0,0006.32,0002.33,0001.47
2024-03-18 21:18:00,SystemResetWarning,0832.5,5.00,000.00,021.7,021.1,000.0,030.0,023.5,13.0,0000.0,0005.04,0002.29,0001.49
2024-03-18 21:19:00,SystemResetWarning,0832.5,5.00,000.00,021.7,021.1,000.0,030.0,023.5,13.3,0000.0,0005.05,0002.28,0001.50
2024-03-18 21:20:00,SystemResetWarning,0832.6,5.00,000.00,021.7,021.1,000.0,030.0,023.5,13.0,0000.0,0004.79,0002.23,0001.50
2024-03-18 21:21:00,SystemResetWarning,0832.5,5.01,000.00,021.7,021.1,000.0,030.0,023.5,12.6,0000.0,0004.63,0002.18,0001.49
2024-03-18 21:22:00,SystemResetWarning,0832.5,5.01,000.00,021.7,021.2,000.0,030.1,023.5,12.5,0000.0,0004.50,0002.17,0001.50
2024-03-18 21:23:00,SystemResetWarning,0832.5,4.98,000.00,021.8,021.2,000.0,030.1,023.5,12.5,0000.0,0004.34,0002.12,0001.51
2024-03-18 21:24:00,SystemResetWarning,0832.5,4.99,000.00,021.8,021.2,000.0,030.1,023.5,12.5,0000.0,0004.66,0002.08,0001.53
2024-03-18 21:25:00,SystemResetWarning,0832.5,5.01,000.00,021.8,021.2,000.0,030.1,023.6,12.2,0000.0,0004.59,0002.08,0001.55
2024-03-18 21:26:00,SystemResetWarning,0832.4,5.00,000.00,021.8,021.2,000.0,030.1,023.6,12.7,0000.0,0004.59,0002.11,0001.55
2024-03-18 21:27:00,SystemResetWarning,0832.5,5.00,000.00,021.8,021.2,000.0,030.1,023.6,12.4,0000.0,0005.22,0002.11,0001.54
2024-03-18 21:28:00,SystemResetWarning,0832.4,5.00,000.00,021.8,021.2,000.0,030.1,023.6,12.8,0000.0,0005.05,0002.15,0001.56
2024-03-18 21:29:00,SystemResetWarning,0832.4,5.00,000.00,021.8,021.2,000.0,030.1,023.6,13.5,0000.0,0005.68,0002.19,0001.57
2024-03-18 21:30:00,SystemResetWarning,0832.4,4.99,000.00,021.8,021.3,000.0,030.1,023.6,13.1,0000.0,0005.65,0002.21,0001.58
2024-03-18 21:31:00,SystemResetWarning,0832.4,5.00,000.00,021.8,021.3,000.0,030.1,023.6,12.9,0000.0,0005.98,0002.24,0001.60
2024-03-18 21:32:00,SystemResetWarning,0832.4,5.00,000.00,021.8,021.3,000.0,030.2,023.6,13.3,0000.0,0007.06,0002.27,0001.63
2024-03-18 21:33:00,SystemResetWarning,0832.4,5.00,000.00,021.9,021.3,000.0,030.2,023.6,13.0,0000.0,0007.04,0002.32,0001.67
2024-03-18 21:34:00,SystemResetWarning,0832.4,5.01,000.00,021.9,021.3,000.0,030.2,023.6,12.5,0000.0,0007.24,0002.43,0001.72
2024-03-18 21:35:00,SystemResetWarning,0832.4,5.01,000.00,021.9,021.3,000.0,030.2,023.7,12.4,0000.0,0006.87,0002.46,0001.74
2024-03-18 21:36:00,SystemResetWarning,0832.4,5.00,000.00,021.9,021.3,000.0,030.2,023.7,12.6,0000.0,0006.90,0002.48,0001.76
2024-03-18 21:37:00,SystemResetWarning,0832.4,4.99,000.00,021.9,021.3,000.0,030.2,023.7,12.8,0000.0,0007.27,0002.51,0001.79
2024-03-18 21:38:00,SystemResetWarning,0832.4,4.99,000.00,021.9,021.3,000.0,030.2,023.7,13.1,0000.0,0006.76,0002.55,0001.82
2024-03-18 21:39:00,SystemResetWarning,0832.4,5.01,000.00,021.9,021.3,000.0,030.2,023.7,13.3,0000.0,0006.66,0002.55,0001.82
2024-03-18 21:40:00,SystemResetWarning,0832.4,5.01,000.00,021.9,021.4,000.0,030.2,023.7,12.9,0000.0,0007.36,0002.55,0001.83
2024-03-18 21:41:00,SystemResetWarning,0832.4,4.98,000.00,021.9,021.4,000.0,030.3,023.7,12.7,0000.0,0007.41,0002.54,0001.84
2024-03-18 21:42:00,SystemResetWarning,0832.3,5.00,000.00,022.0,021.4,000.0,030.3,023.7,13.0,0000.0,0007.32,0002.55,0001.83
2024-03-18 21:43:00,SystemResetWarning,0832.3,5.01,000.00,022.0,021.4,000.0,030.3,023.8,12.8,0000.0,0006.35,0002.57,0001.84
2024-03-18 21:44:00,SystemResetWarning,0832.3,5.01,000.00,022.0,021.4,000.0,030.3,023.8,12.9,0000.0,0006.56,0002.59,0001.85
2024-03-18 21:45:00,SystemResetWarning,0832.3,5.00,000.00,022.0,021.4,000.0,030.3,023.8,13.8,0000.0,0006.59,0002.54,0001.84
2024-03-18 21:46:00,SystemResetWarning,0832.3,4.99,000.00,022.0,021.4,000.0,030.3,023.8,12.6,0000.0,0006.68,0002.55,0001.83
2024-03-18 21:47:00,SystemResetWarning,0832.3,5.00,000.00,022.0,021.4,000.0,030.3,023.8,12.4,0000.0,0006.70,0002.58,0001.85
2024-03-18 21:48:00,SystemResetWarning,0832.4,5.00,000.00,022.0,021.5,000.0,030.3,023.8,12.5,0000.0,0006.62,0002.66,0001.88
2024-03-18 21:49:00,SystemResetWarning,0832.4,5.01,000.00,022.0,021.5,000.0,030.3,023.8,12.9,0000.0,0006.51,0002.67,0001.89
2024-03-18 21:50:00,SystemResetWarning,0832.3,5.00,000.00,022.0,021.5,000.0,030.4,023.8,12.9,0000.0,0006.73,0002.76,0001.93
2024-03-18 21:51:00,SystemResetWarning,0832.4,5.00,000.00,022.0,021.5,000.0,030.4,023.8,13.3,0000.0,0005.58,0002.81,0001.97
2024-03-18 21:52:00,SystemResetWarning,0832.4,4.99,000.00,022.1,021.5,000.0,030.4,023.8,13.5,0000.0,0005.41,0002.83,0002.01
2024-03-18 21:53:00,SystemResetWarning,0832.4,4.99,000.00,022.1,021.5,000.0,030.4,023.9,13.7,0000.0,0005.77,0002.89,0002.07
2024-03-18 21:54:00,SystemResetWarning,0832.4,5.00,000.00,022.1,021.5,000.0,030.4,023.9,13.5,0000.0,0006.47,0003.00,0002.13
2024-03-18 21:55:00,SystemResetWarning,0832.4,5.01,000.00,022.1,021.5,000.0,030.4,023.9,14.1,0000.0,0007.57,0003.05,0002.17
2024-03-18 21:56:00,SystemResetWarning,0832.5,5.00,000.00,022.1,021.5,000.0,030.4,023.9,12.7,0000.0,0008.27,0003.13,0002.22
2024-03-18 21:57:00,SystemResetWarning,0832.5,4.99,000.00,022.1,021.5,000.0,030.4,023.9,12.6,0000.0,0008.38,0003.15,0002.29
2024-03-18 21:58:00,SystemResetWarning,0832.4,5.00,000.00,022.1,021.5,000.0,030.4,023.9,12.6,0000.0,0008.78,0003.18,0002.34
2024-03-18 21:59:00,SystemResetWarning,0832.5,5.01,000.00,022.1,021.5,000.0,030.4,023.9,12.8,0000.0,0009.40,0003.17,0002.36
